KE6AFE Weather Reports


Display with metric or nautical units.
time (UTC)temp
F
wind
direction
speed
MPH
gust
MPH
rain 1hr
in
rain 24hr
in
rain mn
in
humidity
%
barometer
mb
20260906030542 72 2 0.0 0.0 0.00 0.00 0.00 38 1014.0
20260906025532 73 2 0.0 0.0 0.00 0.00 0.00 37 1013.9
20260906024522 74 1 0.0 0.0 0.00 0.00 0.00 36 1013.9
20260906023512 74 1 0.0 0.0 0.00 0.00 0.00 35 1014.0
20260906022502 75 1 0.0 0.0 0.00 0.00 0.00 34 1014.0
20260906021452 76 1 0.0 0.0 0.00 0.00 0.00 33 1014.0
20260906020442 77 1 0.0 0.0 0.00 0.00 0.00 33 1014.0
20260906015432 78 1 0.0 0.0 0.00 0.00 0.00 33 1014.1
20260906014422 79 1 0.0 0.0 0.00 0.00 0.00 32 1014.1
20260906013412 80 2 0.0 0.0 0.00 0.00 0.00 31 1014.1
20260906012402 81 1 0.0 0.0 0.00 0.00 0.00 31 1014.1
20260906011352 82 1 0.0 0.0 0.00 0.00 0.00 30 1014.2
20260906010342 83 1 0.0 0.0 0.00 0.00 0.00 31 1014.1
20260906005332 84 2 0.0 0.0 0.00 0.00 0.00 32 1014.0
20260906004322 84 1 0.0 0.0 0.00 0.00 0.00 31 1013.9
20260906003312 85 1 0.0 0.0 0.00 0.00 0.00 30 1014.0
20260906002305 85 1 0.0 0.0 0.00 0.00 0.00 31 1014.0
20260906001252 86 1 0.0 0.0 0.00 0.00 0.00 31 1013.9
20260906000242 86 1 0.0 0.0 0.00 0.00 0.00 30 1014.0
20260905235232 86 1 0.0 0.0 0.00 0.00 0.00 29 1014.0
20260905234222 87 1 0.0 0.0 0.00 0.00 0.00 29 1014.1
20260905233212 87 1 0.0 0.0 0.00 0.00 0.00 29 1014.1
20260905232202 86 1 0.0 0.0 0.00 0.00 0.00 29 1014.2
20260905231152 86 1 0.0 0.0 0.00 0.00 0.00 29 1014.3
20260905230142 86 1 0.0 0.0 0.00 0.00 0.00 28 1014.5
20260905225132 86 1 0.0 0.0 0.00 0.00 0.00 28 1014.6
20260905224122 86 0 0.0 0.0 0.00 0.00 0.00 28 1014.7
20260905223112 86 1 0.0 0.0 0.00 0.00 0.00 29 1014.7
20260905222102 85 1 0.0 0.0 0.00 0.00 0.00 29 1014.7
20260905221052 85 0 0.0 0.0 0.00 0.00 0.00 30 1014.7
20260905220042 85 1 0.0 0.0 0.00 0.00 0.00 31 1014.8
20260905215032 85 1 0.0 0.0 0.00 0.00 0.00 31 1014.9
20260905214020 84 1 0.0 0.0 0.00 0.00 0.00 31 1015.0
20260905213010 84 1 0.0 0.0 0.00 0.00 0.00 31 1015.0
20260905212000 83 1 0.0 0.0 0.00 0.00 0.00 29 1015.1
20260905210950 82 1 0.0 0.0 0.00 0.00 0.00 27 1015.2
20260905205940 82 0 0.0 0.0 0.00 0.00 0.00 27 1015.1
20260905204930 82 0 0.0 0.0 0.00 0.00 0.00 28 1015.2
20260905203920 81 1 0.0 0.0 0.00 0.00 0.00 27 1015.2
20260905202910 81 1 0.0 0.0 0.00 0.00 0.00 30 1015.3
20260905201900 80 0 0.0 0.0 0.00 0.00 0.00 31 1015.2
20260905200850 79 1 0.0 0.0 0.00 0.00 0.00 33 1015.3
20260905195840 78 0 0.0 0.0 0.00 0.00 0.00 38 1015.4
20260905194830 77 0 0.0 0.0 0.00 0.00 0.00 39 1015.4
20260905193820 76 0 0.0 0.0 0.00 0.00 0.00 40 1015.5
20260905192810 75 0 0.0 0.0 0.00 0.00 0.00 38 1015.6
20260905191800 74 0 0.0 0.0 0.00 0.00 0.00 38 1015.7
20260905190750 73 0 0.0 0.0 0.00 0.00 0.00 40 1015.8
20260905185740 72 0 0.0 0.0 0.00 0.00 0.00 40 1015.8
20260905184730 72 1 0.0 0.0 0.00 0.00 0.00 41 1015.8
20260905183720 72 0 0.0 0.0 0.00 0.00 0.00 43 1015.8
20260905182710 71 0 0.0 0.0 0.00 0.00 0.00 45 1015.8
20260905181700 71 0 0.0 0.0 0.00 0.00 0.00 46 1015.7
20260905180650 70 0 0.0 0.0 0.00 0.00 0.00 49 1015.6
20260905175640 70 0 0.0 0.0 0.00 0.00 0.00 51 1015.6
20260905174630 69 0 0.0 0.0 0.00 0.00 0.00 54 1015.5
20260905173620 68 0 0.0 0.0 0.00 0.00 0.00 54 1015.5
20260905172610 67 0 0.0 0.0 0.00 0.00 0.00 55 1015.3
20260905171600 67 0 0.0 0.0 0.00 0.00 0.00 55 1015.2
20260905170550 66 0 0.0 0.0 0.00 0.00 0.00 55 1015.2
20260905165540 66 1 0.0 0.0 0.00 0.00 0.00 48 1015.2
20260905164530 65 1 0.0 0.0 0.00 0.00 0.00 49 1015.1
20260905163520 64 1 0.0 0.0 0.00 0.00 0.00 52 1015.0
20260905162510 63 1 0.0 0.0 0.00 0.00 0.00 54 1014.9
20260905161500 61 1 0.0 0.0 0.00 0.00 0.00 56 1014.9
20260905160450 60 1 0.0 0.0 0.00 0.00 0.00 59 1015.0
20260905155440 59 1 0.0 0.0 0.00 0.00 0.00 60 1014.9
20260905154430 58 1 0.0 0.0 0.00 0.00 0.00 60 1014.9
20260905153420 57 1 0.0 0.0 0.00 0.01 0.00 61 1014.8
20260905152410 56 1 0.0 0.0 0.00 0.01 0.00 62 1014.7
20260905151400 56 1 0.0 0.0 0.00 0.01 0.00 62 1014.7
20260905150350 56 1 0.0 0.0 0.00 0.01 0.00 63 1014.7
20260905145340 55 1 0.0 0.0 0.00 0.01 0.00 63 1014.6
20260905144330 55 1 0.0 0.0 0.00 0.01 0.00 63 1014.5
20260905143320 55 1 0.0 0.0 0.00 0.01 0.00 63 1014.5
20260905142310 55 1 0.0 0.0 0.00 0.01 0.00 63 1014.4
20260905141300 55 1 0.0 0.0 0.00 0.01 0.00 63 1014.4
20260905140250 55 1 0.0 0.0 0.00 0.01 0.00 64 1014.4
20260905135240 55 1 0.0 0.0 0.00 0.01 0.00 63 1014.2
20260905134230 55 1 0.0 0.0 0.00 0.01 0.00 63 1014.2
20260905133220 55 1 0.0 0.0 0.00 0.01 0.00 63 1014.2
20260905132210 55 1 0.0 0.0 0.00 0.01 0.00 63 1014.2
20260905131200 55 1 0.0 0.0 0.00 0.01 0.00 63 1014.2
20260905130150 55 1 0.0 0.0 0.00 0.01 0.00 63 1014.3
20260905125140 55 1 0.0 0.0 0.00 0.01 0.00 63 1014.2
20260905124130 55 1 0.0 0.0 0.00 0.01 0.00 63 1014.3
20260905123120 55 1 0.0 0.0 0.00 0.01 0.00 63 1014.3
20260905122110 55 1 0.0 0.0 0.00 0.01 0.00 64 1014.4
20260905121100 55 1 0.0 0.0 0.00 0.01 0.00 64 1014.3
20260905120050 55 1 0.0 0.0 0.00 0.01 0.00 63 1014.2
20260905115040 56 1 0.0 0.0 0.00 0.01 0.00 63 1014.1
20260905114030 56 1 0.0 0.0 0.00 0.01 0.00 63 1014.2
20260905113020 56 1 0.0 0.0 0.00 0.01 0.00 62 1014.3
20260905112010 56 1 0.0 0.0 0.00 0.01 0.00 62 1014.2
20260905111000 56 1 0.0 0.0 0.00 0.01 0.00 62 1014.4
20260905105950 56 1 0.0 0.0 0.00 0.01 0.00 62 1014.4
20260905104940 56 2 0.0 0.0 0.00 0.01 0.00 62 1014.3
20260905103930 56 1 0.0 0.0 0.00 0.01 0.00 61 1014.4
20260905102920 57 2 0.0 0.0 0.00 0.01 0.00 61 1014.5
20260905101910 57 1 0.0 0.0 0.00 0.01 0.00 62 1014.5
20260905100900 57 1 0.0 0.0 0.00 0.01 0.00 61 1014.5
20260905095850 57 2 0.0 0.0 0.00 0.01 0.00 61 1014.6
20260905094840 57 1 0.0 0.0 0.00 0.01 0.00 61 1014.6
20260905093830 58 2 0.0 0.0 0.00 0.01 0.00 61 1014.6
20260905092820 58 2 0.0 0.0 0.00 0.01 0.00 61 1014.7
20260905091810 58 2 0.0 0.0 0.00 0.01 0.00 61 1014.8
20260905090800 58 2 0.0 0.0 0.00 0.01 0.00 60 1014.9
20260905085750 59 2 0.0 0.0 0.00 0.01 0.00 60 1014.9
20260905084740 59 2 0.0 0.0 0.00 0.01 0.00 59 1015.0
20260905083730 59 1 0.0 0.0 0.00 0.01 0.00 59 1015.0
20260905082720 60 1 0.0 0.0 0.00 0.01 0.00 59 1015.1
20260905081710 60 1 0.0 0.0 0.00 0.01 0.00 59 1015.0
20260905080700 61 1 0.0 0.0 0.00 0.01 0.00 58 1015.2
20260905075650 61 2 0.0 0.0 0.00 0.01 0.00 58 1015.2
20260905074640 61 2 0.0 0.0 0.00 0.01 0.00 58 1015.1
20260905073630 62 1 0.0 0.0 0.00 0.02 0.00 60 1015.1
20260905072620 62 1 0.0 0.0 0.00 0.02 0.00 60 1015.1
20260905071610 62 1 0.0 0.0 0.00 0.03 0.00 59 1015.0
20260905070600 62 1 0.0 0.0 0.00 0.03 0.00 53 1015.0
20260905065550 62 2 0.0 0.0 0.00 0.03 0.03 53 1014.9
20260905064540 62 1 0.0 0.0 0.00 0.03 0.03 53 1014.9
20260905063530 63 1 0.0 0.0 0.00 0.04 0.03 52 1014.8
20260905062520 63 1 0.0 0.0 0.00 0.04 0.03 52 1014.8
20260905061510 63 1 0.0 0.0 0.00 0.04 0.03 52 1014.8
20260905060500 63 1 0.0 0.0 0.00 0.04 0.03 52 1015.0
20260905055450 64 1 0.0 0.0 0.00 0.04 0.03 51 1015.0
20260905054440 64 1 0.0 0.0 0.00 0.04 0.03 51 1015.0
20260905053430 64 1 0.0 0.0 0.00 0.04 0.03 51 1014.9
20260905052420 64 1 0.0 0.0 0.00 0.04 0.03 51 1014.9
20260905051410 65 1 0.0 0.0 0.00 0.04 0.03 51 1015.0
20260905050400 65 1 0.0 0.0 0.00 0.04 0.03 49 1015.1
20260905045350 65 1 0.0 0.0 0.00 0.04 0.03 49 1015.0
20260905044340 66 1 0.0 0.0 0.00 0.04 0.03 48 1014.9
20260905043330 66 1 0.0 0.0 0.00 0.04 0.03 47 1014.8
20260905042320 67 1 0.0 0.0 0.00 0.04 0.03 46 1014.7
20260905041310 67 1 0.0 0.0 0.00 0.04 0.03 45 1014.7
20260905040300 68 2 0.0 0.0 0.00 0.04 0.03 44 1014.7
20260905035250 68 1 0.0 0.0 0.00 0.04 0.03 43 1014.6
20260905034240 69 1 0.0 0.0 0.00 0.04 0.03 42 1014.5
20260905033230 70 1 0.0 0.0 0.00 0.04 0.03 41 1014.3
20260905032220 71 1 0.0 0.0 0.00 0.04 0.03 41 1014.2
20260905031210 71 1 0.0 0.0 0.00 0.04 0.03 40 1014.2